Starlink 11430

operational
NORAD ID: 62916 Int'l Des: 2025-027 Owner: SPXS Country: US Constellation: starlink
LEOCIRCULAR

Über Starlink 11430

Beschreibung wird geladen...

Live-Position

3D-Globus wird geladen...

Nächste Überflüge

Höhenverlauf

Altitude vs Time

uPlot chart will show altitude changes over time

Zweizeiliger Elementsatz

1 62916U 25027K 25257.47597377 .00103353 00000-0 79852-3 0 9999
2 62916 43.0005 330.2366 0001598 269.6773 90.3912 15.70853032 35471
Epoch: 14. Sept. 2025 • Age: 20 hours

Aktueller Status

Höhe 359.4 km
Geschwindigkeit 7.69 km/s
Subsatellitenpunkt -18.85°S, 157.68°W
Startdatum 8. Feb. 2025
Alter 0.5 years
Typ internet

Technische Details

Klassifizierung Payload
Masse 960.00 kg
Trockenmasse 910.00 kg
Gesamtmasse 960.00 kg
Länge 0.30 m
Durchmesser 4.10 m
Spannweite 29.00 m
Form Box + pan
Hersteller SPXS
Bus-Typ Starlink V2MD
Phasenstatus In Orbit
Besitzer/Staat SPXS/US

Große Konstellationen

Loading constellations...